Find Starlink 3669

NORAD ID: 51971 Int'l Des: 2022-025 Owner: SPXS Country: US Constellation: starlink operational
LEOCIRCULAR

Live-Position

3D-Globus wird geladen...

Über Starlink 3669

Beschreibung wird geladen...

Nächste Überflüge

Passes for default location (London). Set your location on the main map for personalized predictions.

Höhenverlauf

Loading altitude history...

Zweizeiliger Elementsatz

1 51971U 22025R 26125.22480104 .00002194 00000-0 82419-4 0 9995
2 51971 53.1611 121.6307 0001376 73.6272 286.4881 15.31715585229670
Epoch: 5. Mai 2026 • Age: 10 hours

Aktueller Status

Höhe 475.9 km
Geschwindigkeit 7.63 km/s
Subsatellitenpunkt -17.19°S, 145.56°W
Startdatum 9. März 2022
Alter 4.1 years
Typ internet

Technische Details

Klassifizierung Payload
Masse 297.00 kg
Trockenmasse 275.00 kg
Gesamtmasse 297.00 kg
Länge 0.20 m
Durchmesser 2.80 m
Spannweite 9.00 m
Form Box + pan
Hersteller SPXS
Bus-Typ Starlink
Phasenstatus In Orbit
Besitzer/Staat SPXS/US

Most Searched